EW7144 Weather Reports


Display with metric or nautical units.
time (UTC)temp
F
wind
direction
speed
MPH
gust
MPH
rain 1hr
in
rain 24hr
in
rain mn
in
humidity
%
barometer
mb
20260505123906 53 32 0.0 1.0 0.00 0.00 0.00 85 1030.0
20260505123405 53 35 0.0 1.0 0.00 0.00 0.00 85 1030.0
20260505122406 53 352 0.0 1.0 0.00 0.00 0.00 84 1030.0
20260505121906 53 346 0.0 1.0 0.00 0.00 0.00 84 1030.0
20260505120908 53 66 1.0 1.0 0.00 0.00 0.00 85 1029.9
20260505120406 53 66 0.0 1.0 0.00 0.00 0.00 86 1029.9
20260505115905 53 66 0.0 1.0 0.00 0.01 0.00 86 1029.9
20260505114905 52 51 0.0 1.0 0.00 0.01 0.00 86 1030.1
20260505114405 52 48 0.0 0.0 0.00 0.01 0.00 86 1030.0
20260505112407 52 102 1.0 3.0 0.00 0.01 0.00 86 1030.1
20260505111906 52 46 0.0 1.0 0.00 0.01 0.00 86 1030.1
20260505111405 52 46 0.0 1.0 0.00 0.01 0.00 86 1030.2
20260505110405 52 46 0.0 1.0 0.00 0.01 0.00 86 1030.2
20260505101907 52 146 0.0 0.0 0.00 0.01 0.00 84 1030.5
20260505101405 53 147 0.0 0.0 0.00 0.01 0.00 84 1030.6
20260505100906 53 147 0.0 1.0 0.00 0.01 0.00 84 1030.6
20260505095905 53 147 0.0 1.0 0.00 0.01 0.00 84 1030.5
20260505095407 53 146 0.0 1.0 0.00 0.01 0.00 84 1030.5
20260505094906 53 147 0.0 1.0 0.00 0.01 0.00 85 1030.5
20260505094405 53 145 1.0 2.0 0.00 0.01 0.00 85 1030.5
20260505093905 52 152 1.0 5.0 0.00 0.01 0.00 86 1030.5
20260505093405 51 144 1.0 3.0 0.00 0.01 0.00 87 1030.6
20260505092905 51 112 2.0 5.0 0.00 0.01 0.00 87 1030.6
20260505092405 51 141 3.0 5.0 0.00 0.01 0.00 87 1030.6
20260505091905 50 139 0.0 3.0 0.00 0.01 0.00 87 1030.7
20260505091405 50 134 2.0 3.0 0.00 0.01 0.00 87 1030.6
20260505090905 50 154 0.0 1.0 0.00 0.01 0.00 86 1030.7
20260505090406 50 152 0.0 2.0 0.00 0.01 0.00 86 1030.7
20260505085407 51 18 3.0 9.0 0.00 0.01 0.00 85 1030.6
20260505084906 51 6 3.0 5.0 0.00 0.01 0.00 85 1030.4
20260505084406 52 10 0.0 1.0 0.00 0.01 0.00 84 1030.2
20260505083906 52 133 0.0 1.0 0.00 0.01 0.00 84 1030.3
20260505083406 52 133 0.0 1.0 0.00 0.01 0.00 84 1030.2
20260505082406 52 133 0.0 1.0 0.00 0.01 0.00 85 1030.5
20260505081907 52 131 0.0 1.0 0.00 0.01 0.00 84 1030.5
20260505081405 52 129 0.0 1.0 0.00 0.01 0.00 84 1030.5
20260505080906 52 129 0.0 2.0 0.00 0.01 0.00 84 1030.6
20260505075405 53 216 0.0 1.0 0.00 0.01 0.00 83 1030.7
20260505074905 53 216 0.0 1.0 0.00 0.01 0.00 83 1030.5
20260505074405 53 216 0.0 1.0 0.00 0.01 0.00 83 1030.5
20260505073905 53 216 0.0 2.0 0.00 0.01 0.00 83 1030.7
20260505073405 53 216 0.0 3.0 0.00 0.01 0.00 83 1030.8
20260505072905 53 216 0.0 2.0 0.00 0.01 0.00 83 1030.7
20260505071405 53 226 1.0 2.0 0.00 0.01 0.00 82 1030.7
20260505070905 54 206 1.0 3.0 0.00 0.01 0.00 82 1030.7
20260505070405 54 332 0.0 1.0 0.00 0.01 0.00 81 1030.7
20260505065905 54 355 0.0 1.0 0.00 0.01 0.00 81 1030.7
20260505065405 54 345 1.0 1.0 0.00 0.01 0.00 81 1030.7
20260505064906 55 351 0.0 2.0 0.00 0.01 0.00 81 1030.7
20260505063906 55 339 0.0 1.0 0.00 0.01 0.00 81 1030.6
20260505063406 55 344 0.0 2.0 0.00 0.01 0.00 81 1030.6
20260505061905 55 350 0.0 1.0 0.00 0.01 0.00 80 1030.6
20260505060905 55 349 0.0 3.0 0.00 0.01 0.00 79 1030.6
20260505055905 56 241 0.0 3.0 0.00 0.01 0.00 79 1030.5
20260505055405 56 359 1.0 3.0 0.00 0.01 0.00 78 1030.5
20260505054905 56 349 1.0 3.0 0.00 0.01 0.00 78 1030.5
20260505054405 56 349 2.0 5.0 0.00 0.01 0.00 77 1030.5
20260505053905 57 0 2.0 6.0 0.00 0.01 0.00 77 1030.4
20260505053405 57 345 2.0 6.0 0.00 0.01 0.00 77 1030.4
20260505052906 57 341 3.0 7.0 0.00 0.01 0.00 76 1030.4
20260505051906 58 353 3.0 9.0 0.00 0.01 0.00 75 1030.4
20260505051405 59 3 3.0 8.0 0.00 0.01 0.00 75 1030.4
20260505050405 59 340 4.0 8.0 0.00 0.01 0.00 75 1030.4
20260505041406 61 349 5.0 12.0 0.00 0.01 0.00 72 1030.5
20260505040905 61 347 4.0 9.0 0.00 0.01 0.00 72 1030.4
20260505040406 61 348 4.0 9.0 0.00 0.01 0.00 72 1030.4
20260505035906 61 333 4.0 10.0 0.00 0.01 0.00 72 1030.5
20260505035405 61 338 3.0 10.0 0.00 0.01 0.00 71 1030.4
20260505034905 61 306 4.0 9.0 0.00 0.01 0.00 71 1030.5
20260505034405 61 342 2.0 6.0 0.00 0.01 0.00 71 1030.5
20260505033905 61 336 2.0 8.0 0.00 0.01 0.00 72 1030.5
20260505033406 61 237 2.0 7.0 0.00 0.01 0.00 72 1030.4
20260505032905 61 298 4.0 10.0 0.00 0.01 0.00 71 1030.5
20260505032406 61 348 5.0 9.0 0.00 0.01 0.00 71 1030.5
20260505031907 61 320 5.0 12.0 0.00 0.01 0.00 72 1030.6
20260505031405 61 348 5.0 10.0 0.00 0.01 0.00 71 1030.6
20260505030906 61 328 5.0 9.0 0.00 0.01 0.00 71 1030.6
20260505030407 62 326 3.0 8.0 0.00 0.01 0.00 71 1030.6
20260505025905 62 264 2.0 8.0 0.00 0.01 0.00 70 1030.7
20260505025405 62 349 3.0 8.0 0.00 0.01 0.00 71 1030.8
20260505024906 61 313 2.0 6.0 0.00 0.01 0.00 72 1030.8
20260505023406 61 348 5.0 12.0 0.00 0.01 0.00 71 1030.9
20260505022905 61 343 5.0 10.0 0.00 0.01 0.00 71 1031.0
20260505022406 62 334 6.0 10.0 0.00 0.01 0.00 72 1031.0
20260505021905 62 343 5.0 12.0 0.00 0.01 0.00 73 1031.0
20260505021406 62 343 3.0 9.0 0.00 0.01 0.00 72 1031.0
20260505020906 62 342 7.0 13.0 0.00 0.01 0.00 71 1031.1
20260505020406 62 355 5.0 10.0 0.00 0.01 0.00 71 1031.1
20260505015906 62 353 6.0 9.0 0.00 0.01 0.00 71 1031.1
20260505013906 60 331 4.0 9.0 0.00 0.01 0.00 76 1031.3
20260505013405 60 347 4.0 10.0 0.00 0.01 0.00 74 1031.4
20260505012906 61 350 3.0 9.0 0.00 0.01 0.00 74 1031.5
20260505011905 61 342 3.0 10.0 0.00 0.01 0.00 72 1031.6
20260505011407 62 354 3.0 10.0 0.00 0.01 0.00 72 1031.7
20260505010406 60 354 4.0 12.0 0.00 0.01 0.00 74 1031.8
20260505005906 60 338 4.0 10.0 0.00 0.01 0.00 74 1031.8
20260505005406 60 355 3.0 8.0 0.00 0.01 0.00 74 1031.9
20260505004406 60 349 2.0 12.0 0.00 0.01 0.00 75 1032.0
20260505003907 60 338 3.0 9.0 0.00 0.01 0.00 75 1032.1
20260505003405 60 346 2.0 9.0 0.00 0.01 0.00 75 1032.2
20260505002407 59 356 3.0 9.0 0.00 0.01 0.00 74 1032.4
20260505001906 60 353 3.0 6.0 0.00 0.01 0.00 75 1032.5
20260505001405 60 348 4.0 10.0 0.00 0.01 0.00 74 1032.5
20260505000906 60 344 2.0 8.0 0.00 0.01 0.00 75 1032.5
20260505000406 60 354 3.0 9.0 0.00 0.01 0.00 75 1032.6
20260504235906 60 349 2.0 3.0 0.00 0.01 0.00 77 1032.6
20260504235406 60 323 2.0 3.0 0.00 0.01 0.00 76 1032.6
20260504234907 60 352 1.0 3.0 0.00 0.02 0.00 76 1032.7
20260504233407 59 342 1.0 2.0 0.00 0.02 0.00 76 1032.8
20260504232905 59 343 1.0 2.0 0.00 0.02 0.00 77 1032.8
20260504232405 59 357 1.0 2.0 0.00 0.02 0.00 76 1032.9
20260504231907 59 339 1.0 3.0 0.00 0.02 0.00 78 1032.9
20260504231405 58 359 0.0 2.0 0.00 0.02 0.00 79 1032.9
20260504230407 58 354 1.0 3.0 0.00 0.02 0.00 79 1032.9
20260504225905 58 346 1.0 2.0 0.00 0.02 0.00 79 1032.9
20260504225407 58 336 0.0 1.0 0.00 0.02 0.00 80 1032.9
20260504224905 57 340 0.0 1.0 0.00 0.02 0.00 81 1032.9
20260504224404 57 346 0.0 1.0 0.00 0.02 0.00 81 1032.9
20260504223905 57 338 1.0 2.0 0.00 0.02 0.00 81 1032.9
20260504223405 57 242 1.0 2.0 0.00 0.02 0.00 81 1033.0
20260504222405 56 343 0.0 2.0 0.00 0.02 0.00 81 1033.0
20260504221905 56 341 0.0 1.0 0.00 0.02 0.00 82 1033.0
20260504221405 56 211 0.0 1.0 0.00 0.02 0.00 82 1033.0
20260504220907 56 16 0.0 1.0 0.00 0.02 0.00 82 1033.0
20260504220405 56 16 1.0 2.0 0.00 0.02 0.00 82 1033.0
20260504215405 56 16 0.0 1.0 0.00 0.02 0.00 83 1033.1
20260504214907 55 16 0.0 1.0 0.00 0.02 0.00 83 1033.1
20260504214405 55 16 0.0 1.0 0.00 0.02 0.00 83 1033.2
20260504213906 55 16 0.0 0.0 0.00 0.02 0.00 84 1033.2
20260504213407 55 16 0.0 0.0 0.00 0.02 0.00 84 1033.2
20260504212905 55 16 0.0 0.0 0.00 0.02 0.00 84 1033.2
20260504212407 55 16 0.0 0.0 0.00 0.02 0.00 84 1033.2
20260504211905 54 16 0.0 0.0 0.00 0.02 0.00 83 1033.2
20260504211405 54 16 0.0 1.0 0.00 0.02 0.00 84 1033.2
20260504210905 54 16 0.0 1.0 0.00 0.02 0.00 84 1033.3
20260504210405 54 16 0.0 1.0 0.00 0.02 0.00 83 1033.2
20260504205906 54 16 0.0 1.0 0.00 0.02 0.00 83 1033.2
20260504205405 54 16 0.0 1.0 0.00 0.02 0.00 83 1033.1
20260504204407 54 16 0.0 1.0 0.00 0.02 0.00 83 1033.2
20260504203905 54 16 0.0 1.0 0.00 0.02 0.00 83 1033.2
20260504202906 53 16 0.0 1.0 0.00 0.02 0.00 83 1033.3
20260504202406 53 16 0.0 0.0 0.00 0.02 0.00 83 1033.3
20260504201906 53 16 0.0 0.0 0.00 0.02 0.00 83 1033.2
20260504200907 53 16 0.0 1.0 0.00 0.02 0.00 83 1033.1
20260504200406 53 16 0.0 1.0 0.00 0.02 0.00 83 1033.1
20260504195905 53 16 0.0 0.0 0.00 0.02 0.00 83 1033.0
20260504195405 53 16 0.0 0.0 0.00 0.02 0.00 83 1033.0
20260504194906 53 16 0.0 1.0 0.00 0.02 0.00 83 1032.9
20260504193906 53 16 0.0 1.0 0.00 0.02 0.00 84 1032.8
20260504192905 53 16 0.0 1.0 0.00 0.02 0.00 84 1032.7
20260504191906 52 16 0.0 2.0 0.00 0.02 0.00 85 1032.7
20260504191405 53 10 1.0 2.0 0.00 0.02 0.00 85 1032.7
20260504190906 52 343 0.0 1.0 0.00 0.02 0.00 85 1032.7
20260504190405 52 338 1.0 2.0 0.00 0.02 0.00 86 1032.7
20260504185905 52 336 0.0 1.0 0.00 0.02 0.00 86 1032.7
20260504185405 52 335 0.0 1.0 0.00 0.02 0.00 87 1032.6
20260504184905 52 330 0.0 1.0 0.00 0.02 0.00 87 1032.6
20260504184405 52 338 0.0 1.0 0.00 0.02 0.00 87 1032.6
20260504183906 52 337 0.0 1.0 0.00 0.02 0.00 87 1032.6
20260504182906 52 346 0.0 1.0 0.00 0.02 0.00 88 1032.7
20260504182405 52 352 0.0 1.0 0.00 0.02 0.00 88 1032.7
20260504181904 52 355 0.0 2.0 0.00 0.02 0.00 89 1032.7
20260504181405 52 343 0.0 2.0 0.00 0.02 0.00 89 1032.7
20260504180905 51 342 0.0 1.0 0.00 0.02 0.00 90 1032.7
20260504180405 51 349 0.0 3.0 0.00 0.02 0.00 90 1032.7
20260504175905 51 355 1.0 3.0 0.00 0.02 0.00 90 1032.7
20260504175405 51 352 0.0 2.0 0.00 0.02 0.00 90 1032.7
20260504174905 51 334 1.0 3.0 0.00 0.02 0.00 90 1032.8
20260504173905 51 359 0.0 2.0 0.00 0.02 0.00 91 1032.8
20260504173404 51 263 0.0 3.0 0.00 0.02 0.00 91 1032.7
20260504172905 50 300 0.0 2.0 0.00 0.02 0.00 91 1032.8
20260504171904 50 27 0.0 1.0 0.00 0.02 0.00 91 1032.8
20260504171405 50 28 1.0 2.0 0.00 0.02 0.00 91 1032.8
20260504170904 50 358 0.0 1.0 0.00 0.02 0.00 91 1032.8
20260504170405 50 13 0.0 0.0 0.00 0.02 0.00 91 1032.8
20260504160405 50 356 1.0 2.0 0.00 0.02 0.00 90 1032.8
20260504150905 50 12 1.0 2.0 0.00 0.02 0.00 90 1033.4
20260504150404 50 31 1.0 2.0 0.00 0.02 0.00 90 1033.4
20260504140905 49 359 0.0 1.0 0.00 0.02 0.00 89 1033.5
20260504140405 49 359 0.0 1.0 0.00 0.02 0.00 89 1033.4
20260504130404 51 225 0.0 1.0 0.00 0.02 0.00 88 1033.4